Regional Weather Roundup
Issued by NWS

Home | Current Version | Previous Version | Text Only | Print | Product List | Glossary On
Versions: 1 2 3 4 5 6 7 8 9 10 11 12 13 14 15 16 17 18 19 20 21 22 23 24 25 26 27 28 29 30 31 32 33 34 35 36 37 38 39 40 41 42 43 44 45 46 47 48 49 50
709
ASUS45 KBOU 230907
RWRCO

WEATHER ROUNDUP FOR COLORADO
NATIONAL WEATHER SERVICE DENVER/BOULDER CO
300 AM MDT SAT JUL 23 2016

NOTE: "FAIR" INDICATES FEW OR NO CLOUDS BELOW 12000 FEET WITH NO
SIGNIFICANT WEATHER AND/OR OBSTRUCTIONS TO VISIBILITY.

COZ001>005-013-030-031-231000-
...NORTHWEST COLORADO...

CITY           SKY/WX    TMP DP  RH WIND       PRES   REMARKS
CRAIG          FAIR      56  48  74 SE3       30.27R
HAYDEN         FAIR      61  45  55 E9        30.29S
MEEKER         FAIR      58  51  78 NE5       30.27F
MOUNT WERNER   NOT AVBL
STEAMBOAT SPGS FAIR      55  46  69 CALM      30.32S
WALDEN         FAIR      52  39  62 SE9       30.40S
$$

COZ006>008-011-231000-
...WEST CENTRAL VALLEYS...

CITY           SKY/WX    TMP DP  RH WIND       PRES   REMARKS
GRAND JUNCTION FAIR      69  55  60 E15       30.14F
MONTROSE       FAIR      64  50  60 S7        30.28S
EAGLE          FAIR      55  48  76 CALM      30.34S
RIFLE          FAIR      64  54  69 SW6       30.22S
DELTA          FAIR      65  57  76 CALM      30.24R
NUCLA          FAIR      61  54  77 E3        30.29F
$$

COZ017>023-064>068-231000-
...SOUTHWEST COLORADO...

CITY           SKY/WX    TMP DP  RH WIND       PRES   REMARKS
DURANGO        FAIR      69  46  43 N6        30.31R
CORTEZ         FAIR      63  48  58 CALM      30.26R
PAGOSA SPRINGS FAIR      62  46  56 N5        30.41R
TELLURIDE      FAIR      55  48  76 SE7       30.52F
WOLF CREEK PAS MOCLDY    50  36  57 SW13      30.73F
$$

COZ009-010-012-014-032>034-037-058>063-231000-
...CENTRAL COLORADO...

CITY           SKY/WX    TMP DP  RH WIND       PRES   REMARKS
ASPEN          FAIR      53  46  77 SW10      30.40F
BUENA VISTA    FAIR      57  45  64 NW12      30.40R
COPPER MTN     FAIR      54  37  54 W8        30.71S
BERTHOUD PASS  FAIR      45  32  61 NW23      30.70F
COTTONWOOD PAS FAIR      61  41  48 W14G20    30.53S
GUNNISON       FAIR      52  46  82 CALM      30.46F
KREMMLING      FAIR      50  45  81 SE3       30.39F
LEADVILLE      FAIR      46  40  79 NE6       30.54S
MONARCH PASS   FAIR      45  39  81 W23       30.79S
SALIDA         FAIR      62  47  59 W5        30.44R
SUNLIGHT       CLOUDY    55  41  58 CALM      30.63S
WILKERSON PASS FAIR      54  34  47 NW8       30.65F
$$

COZ069>075-231000-
...SAN LUIS VALLEY/SANGRE DE CRISTO MOUNTAINS...

CITY           SKY/WX    TMP DP  RH WIND       PRES   REMARKS
ALAMOSA        FAIR      54  48  80 SW5       30.36S
LA VETA PASS   FAIR      55  41  58 S8G16     30.54S
SAGUACHE       FAIR      59  46  63 NW17      30.39F
$$

COZ035-036-038>040-231000-
...NORTHERN COLORADO FRONT RANGE...

CITY           SKY/WX    TMP DP  RH WIND       PRES   REMARKS
DENVER INTL AP FAIR      70  49  47 SW9       30.11F
DMNS CITY PARK   N/A     70  49  47 S3        30.11S
AURORA         PTCLDY    67  50  53 S8        30.14S
FRONT RANGE AP NOT AVBL
ERIE MUNI ARPT FAIR      64  53  66 CALM      30.10R
BOULDER MUN AP FAIR      70  50  49 W5        30.11S
CENTENNIAL     FAIR      67  47  48 S6        30.15F
BROOMFIELD     FAIR      72  43  35 NW6       30.14F
LONGMONT       FAIR      68  56  66 NW3       30.11F
$$

COZ041-046-047-076>085-087-088-231000-
...PIKES PEAK/PALMER DIVIDE AND SOUTHERN FOOTHILLS...

CITY           SKY/WX    TMP DP  RH WIND       PRES   REMARKS
COLO. SPRINGS  FAIR      70  46  42 N12       30.18F
A. F. ACADEMY  FAIR      66  47  49 N9        30.21S
SCHRIEVER AFB  NOT AVBL
ELLICOTT       FAIR     N/A N/A N/A N7        30.16F
FALCON         NOT AVBL
FORT CARSON    FAIR      69  47  45 N3        30.13F
LIMON          FAIR      67  50  54 NW8       30.11S
MONUMENT HILL  FAIR      59  46  63 W8        30.27S
TRINIDAD       NOT AVBL
$$

COZ042>045-048>051-090-091-231000-
...NORTHEAST COLORADO...

CITY           SKY/WX    TMP DP  RH WIND       PRES   REMARKS
GREELEY ARPT   FAIR      64  61  88 W8        30.08S
AKRON          FAIR      68  63  84 SE7       30.05S
BURLINGTON     FAIR      70  59  68 NE7       30.00F
WRAY           FAIR      72  64  78 E6        29.99S
STERLING       FAIR      68  64  88 CALM      30.01R
HOLYOKE        FAIR      73  64  73 W5        29.97F
FORT MORGAN    FAIR      65  61  87 E3        30.04F
$$

COZ086-089-092>099-231000-
...SOUTHEAST COLORADO...

CITY           SKY/WX    TMP DP  RH WIND       PRES   REMARKS
PUEBLO         FAIR      67  58  72 NW3       30.05F
LA JUNTA       FAIR      75  53  46 W10       30.00F
LAMAR          FAIR      78  52  40 SW7       29.93F
SPRINGFIELD      N/A     77  49  37 SW10      30.03F
$$




USA.gov is the U.S. government's official web portal to all federal, state and local government web resources and services.